Location: Malcolm X Square
(37.7810°N, 122.4297°W)
Time: 23:10:31
(UTC+00:00)

USA 308 - Pass Details

Date: 13 April 2024
Orbit: 493 x 493 km, 54.0° (Epoch: 14 March)

Event Time Altitude Azimuth Distance (km) Brightness Sun altitude
Exits shadow 12:32:13 18° 216° (SW) 1,218 4.1 -12.9°
Maximum altitude 12:34:54 72° 134° (SE) 514 2.7 -12.4°
Drops below altitude 10° 12:38:48 10° 50° (NE) 1,695 6.6 -11.7°
Sets 12:41:01 0° 49° (NE) 2,568 7.7 -11.3°
